KC3SRB Weather Reports


time (UTC)temp
C
wind
direction
speed
KPH
gust
KPH
rain 1hr
cm
rain 24hr
cm
rain mn
cm
humidity
%
barometer
mb
20260505181555 26 277 6.4 22.5 0.00 0.00 0.00 39 1008.5
20260505180050 26 302 4.8 24.1 0.00 0.00 0.00 38 1008.7
20260505174553 26 275 6.4 20.9 0.00 0.00 0.00 38 1008.8
20260505173051 26 337 4.8 27.4 0.00 0.00 0.00 39 1008.8
20260505171554 26 259 9.7 24.1 0.00 0.00 0.00 37 1008.9
20260505170059 26 332 8.0 30.6 0.00 0.00 0.00 37 1009.0
20260505164615 25 9 8.0 25.7 0.00 0.00 0.00 38 1009.4
20260505163102 25 306 8.0 27.4 0.00 0.00 0.00 39 1009.6
20260505161615 25 315 8.0 20.9 0.00 0.00 0.00 41 1009.9
20260505153101 24 336 6.4 19.3 0.00 0.00 0.00 46 1009.8
20260505151604 23 258 4.8 14.5 0.00 0.00 0.00 48 1009.9
20260505130110 18 239 1.6 6.4 0.00 0.00 0.00 61 1011.1
20260505124602 17 222 1.6 6.4 0.00 0.00 0.00 65 1011.2
20260505123101 17 0 1.6 6.4 0.00 0.00 0.00 66 1011.0
20260505121552 16 246 0.0 3.2 0.00 0.00 0.00 67 1011.1
20260505120107 16 0 0.0 3.2 0.00 0.00 0.00 68 1010.9
20260505114552 15 0 0.0 3.2 0.00 0.00 0.00 69 1010.8
20260505113054 15 0 0.0 1.6 0.00 0.00 0.00 70 1010.6
20260505111550 14 0 0.0 0.0 0.00 0.00 0.00 76 1010.4
20260505101552 12 0 0.0 3.2 0.00 0.00 0.00 76 1010.2
20260505100051 13 0 0.0 0.0 0.00 0.00 0.00 76 1010.0
20260505094555 13 0 0.0 0.0 0.00 0.00 0.00 75 1009.8
20260505093107 13 0 0.0 0.0 0.00 0.00 0.00 74 1009.7
20260505091554 13 0 0.0 0.0 0.00 0.00 0.00 72 1009.7
20260505090053 14 0 0.0 0.0 0.00 0.00 0.00 71 1009.7
20260505084551 14 0 0.0 0.0 0.00 0.00 0.00 70 1009.8
20260505083054 13 0 0.0 0.0 0.00 0.00 0.00 70 1009.7
20260505081554 14 0 0.0 0.0 0.00 0.00 0.00 70 1009.7
20260505080050 14 0 0.0 0.0 0.00 0.00 0.00 69 1009.6
20260505074553 14 0 0.0 0.0 0.00 0.00 0.00 69 1009.5
20260505073052 14 0 0.0 0.0 0.00 0.00 0.00 68 1009.4
20260505071554 15 0 0.0 0.0 0.00 0.00 0.00 67 1009.3
20260505070056 15 0 0.0 0.0 0.00 0.00 0.00 66 1009.4
20260505064556 16 0 0.0 3.2 0.00 0.00 0.00 64 1009.3
20260505063056 16 0 0.0 3.2 0.00 0.00 0.00 63 1009.5
20260505061552 16 0 0.0 3.2 0.00 0.00 0.00 64 1009.6
20260505060053 16 0 0.0 3.2 0.00 0.00 0.00 65 1009.5
20260505054556 16 41 1.6 3.2 0.00 0.00 0.00 63 1009.5
20260505053104 16 41 0.0 3.2 0.00 0.00 0.00 61 1009.6
20260505051557 17 0 0.0 0.0 0.00 0.00 0.00 59 1009.5
20260505041555 17 340 1.6 4.8 0.00 0.00 0.00 56 1009.3
20260505040054 16 322 1.6 6.4 0.00 0.00 0.00 56 1009.3
20260505034553 16 360 1.6 4.8 0.00 0.00 0.00 58 1009.4
20260505033051 16 40 1.6 3.2 0.00 0.00 0.00 59 1009.1
20260505031549 16 24 1.6 4.8 0.00 0.00 0.00 58 1009.3
20260505030050 16 51 1.6 3.2 0.00 0.00 0.00 56 1009.3
20260505024552 16 51 1.6 3.2 0.00 0.00 0.00 55 1009.3
20260505023057 16 0 1.6 4.8 0.00 0.00 0.00 54 1009.1
20260505021549 17 49 1.6 3.2 0.00 0.00 0.00 54 1009.2
20260505020055 17 47 1.6 4.8 0.00 0.00 0.00 52 1009.2
20260505014547 17 66 0.0 3.2 0.00 0.00 0.00 51 1009.2
20260505013047 17 59 1.6 4.8 0.00 0.00 0.00 50 1009.0
20260505011554 18 32 1.6 4.8 0.00 0.00 0.00 49 1009.1
20260505010100 18 45 1.6 4.8 0.00 0.00 0.00 50 1008.8
20260505004552 18 45 1.6 4.8 0.00 0.00 0.00 50 1008.7
20260505003050 18 51 1.6 3.2 0.00 0.00 0.00 49 1008.5
20260505001553 20 51 1.6 3.2 0.00 0.00 0.00 46 1008.4
20260505000105 20 0 0.0 9.7 0.00 0.00 0.00 41 1008.3
20260504234549 21 274 1.6 12.9 0.00 0.00 0.00 40 1008.2
20260504233054 21 296 3.2 12.9 0.00 0.00 0.00 40 1008.1
20260504231551 21 278 6.4 19.3 0.00 0.00 0.00 39 1008.1
20260504230057 21 273 4.8 19.3 0.00 0.00 0.00 39 1007.9
20260504224554 21 279 3.2 27.4 0.00 0.00 0.00 40 1008.0
20260504223048 21 250 8.0 20.9 0.00 0.00 0.00 39 1008.2
20260504221551 22 271 6.4 20.9 0.00 0.00 0.00 39 1008.1
20260504220111 22 352 6.4 27.4 0.00 0.00 0.00 38 1008.4
20260504214555 22 277 8.0 20.9 0.00 0.00 0.00 38 1008.3
20260504213059 22 329 8.0 19.3 0.00 0.00 0.00 37 1008.3
20260504211555 22 11 4.8 16.1 0.00 0.00 0.00 38 1008.3
20260504210052 22 267 4.8 20.9 0.00 0.00 0.00 38 1008.2
20260504204552 22 272 6.4 17.7 0.00 0.00 0.00 38 1008.2
20260504203055 22 283 4.8 20.9 0.00 0.00 0.00 37 1008.3
20260504201551 22 318 3.2 14.5 0.00 0.00 0.00 37 1008.6
20260504200057 22 297 4.8 14.5 0.00 0.00 0.00 36 1008.8
20260504194552 22 266 6.4 17.7 0.00 0.00 0.00 38 1009.0
20260504193054 22 274 3.2 17.7 0.00 0.00 0.00 38 1009.3
20260504191600 22 117 4.8 12.9 0.00 0.00 0.00 38 1009.4
20260504190110 21 223 6.4 19.3 0.00 0.00 0.00 38 1009.8
20260504184611 21 287 4.8 14.5 0.00 0.00 0.00 42 1010.0
20260504183054 21 254 4.8 22.5 0.00 0.00 0.00 38 1010.2